CZ-6A DEB

Satellite information

Favourite Embed

Satellite Type and Status

DEBRISIN ORBIT

Key statistics

Satellite CZ-6A DEB at a glance.

Uptime

1078

Days in orbit

Revolutions

≈ 14.4

Per day

Orbit

SSO

Sun Synchronous Orbit

Inclination

98.8

Latest

Satellite identification and parameters

Extended collection of information and parameters for CZ-6A DEB.

Object identification

Identified? True

Debris? True

Object name: CZ-6A DEB

International designator: 2022-151LQ

Object number (NORAD): 54564

Object ID (CCSDS): 54564

Country: PEOPLES REPUBLIC OF CHINA (PRC)

Current information (Y/N): Y

RCS size: SMALL

Orbital parameters

Period: 100.043 minutes

Inclination: 98.7577 deg

SMA: 7138.705 km

Apoapsis: 782.009 km

Periapsis: 739.13 km

RAAN: 325.2883 deg

Eccentricy: 0.0030033

Argument of periapsis: 273.931 deg

Mean anomaly: 85.8443 deg

Mean motion: 14.3937396 rev/day

Mean motion (dot): 0.00007311 rev/day2

B* drag term: 0.0023513 1/REarth

Two-line elements (TLE)

Creation date: Oct. 23, 2025, 10:16 p.m.

Reference frame: TEME

Reference center: EARTH

Epoch: Oct. 23, 2025, 1:33 p.m. UTC

TLE line 0: 0 CZ-6A DEB

TLE line 1: 1 54564U 22151LQ 25296.56461240 .00007311 00000-0 23513-2 0 9995

TLE line 2: 2 54564 98.7577 325.2883 0030033 273.9310 85.8443 14.39373960153471

Live tracking on map

Real-time ground track for satellite CZ-6A DEB.

In-orbit conjunctions

A list of the most updated potential collisions computed for object CZ-6A DEB.

Target Orbit TCA Probability of collision Miss distance Type
PSLV DEB SSO 2024-11-13 05:39:34 0.00026055 204.0 (m) DEBRIS
COSMOS 1174 DEB LEO 2024-10-28 11:47:07 0.0001327065 179.0 (m) DEBRIS
FENGYUN 1C DEB SSO 2024-09-26 15:05:48 0.0002034152 831.0 (m) DEBRIS

Associated space launch

Chinese satellite reported for atmospheric/ocean/environmental/spatial parameter research purposes, details TBD.

CZ-6A DEB was lifted into orbit during the mission ‘Long March 6A | Yunhai 3’, on board a Long March 6A space rocket.

The launch took place on Nov. 11, 2022, 10:52 p.m. from Launch Complex 9A.

For more information about the launch, click the button.

Launch to space Long March 6A | Yunhai 3
Long March 6A | Yunhai 3

Agency: N/A

Status: Launch Successful

Launch date: Nov. 11, 2022, 10:52 p.m. UTC

Rocket: Long March 6A

Launch pad: Launch Complex 9A

Location: Taiyuan Satellite Launch Center, People's Republic of China

...

Latest news about this satellite

There are no fresh news available about this satellite. Check back as we update our databases every day.


Newsletter sign-up

Weekly statistics, charts and insights to help you stay on top of the space industry.